Regional Weather Roundup
Issued by NWS Northern Indiana

Home | Current Version | Previous Version | Text Only | Print | Product List | Glossary Off
Versions: 1 2 3 4 5 6 7 8 9 10 11 12 13 14 15 16 17 18 19 20 21 22 23 24 25 26 27 28 29 30 31 32 33 34 35 36 37 38 39 40 41 42 43 44 45 46 47 48 49 50

000
ASUS43 KIWX 241810
RWRIWX

KIWX WEATHER ROUNDUP
NATIONAL WEATHER SERVICE NORTHERN INDIANA
200 PM EDT THU JUL 24 2014

NOTE: "FAIR" INDICATES FEW OR NO CLOUDS BELOW 12,000 FEET WITH NO
SIGNIFICANT WEATHER AND/OR OBSTRUCTIONS TO VISIBILITY.

* THESE STATIONS ARE NOT UNDER NWS QUALITY CONTROL. THEY ALSO MAY NOT
  REPORT WEATHER SUCH AS PRECIPITATION OR FOG.

INZ001>027-241900-
NORTHERN INDIANA

CITY           SKY/WX    TMP DP  RH WIND       PRES   REMARKS
GARY*          MOSUNNY   72  59  64 N14       30.17F
VALPARAISO     MOSUNNY   71  53  52 N9        30.15F
6HR MIN TEMP:  58; 6HR MAX TEMP:  74;

MICHIGAN CITY* SUNNY     70  52  52 N14       30.15F
LAPORTE*       PTSUNNY   71  52  50 NW7       30.15F
6HR MIN TEMP:  58; 6HR MAX TEMP:  71;

KNOX*          MOSUNNY   73  51  45 NE3       30.13F
6HR MIN TEMP:  44; 6HR MAX TEMP:  86;

SOUTH BEND     PTSUNNY   72  52  49 N9        30.14F
6HR MIN TEMP:  59; 6HR MAX TEMP:  75;

ELKHART*       PTSUNNY   72  48  43 N7        30.14
GOSHEN         PTSUNNY   73  51  46 NE7       30.13F
6HR MIN TEMP:  61; 6HR MAX TEMP:  74;

MONTICELLO*    PTSUNNY   73  55  54 NE8       30.12F
6HR MIN TEMP:  58; 6HR MAX TEMP:  73;

LOGANSPORT*    PTSUNNY   70  52  52 N8G16     30.12F
ROCHESTER*     PTSUNNY   73  50  43 NE7       30.13F
WARSAW*        MOSUNNY   72  50  46 N5        30.13S
ANGOLA*        MOSUNNY   73  48  40 VRB5      30.12F
FORT WAYNE     MOSUNNY   74  49  41 NE12G20   30.11F
HUNTINGTON*    PTSUNNY   73  52  47 NE6       30.10F
6HR MIN TEMP:  60; 6HR MAX TEMP:  74;

PERU/GRISSOM   CLOUDY    71  54  54 N10       30.11F
6HR MIN TEMP:  59; 6HR MAX TEMP:  73;

MARION*        CLOUDY    71  51  49 N9        30.12S
6HR MIN TEMP:  32; 6HR MAX TEMP:  89;


$$
INZ028>050-241900-
CENTRAL INDIANA

CITY           SKY/WX    TMP DP  RH WIND       PRES   REMARKS
LAFAYETTE      PTSUNNY   73  55  53 NE7       30.12F
6HR MIN TEMP:  58; 6HR MAX TEMP:  74;

KOKOMO*        MOSUNNY   75  52  43 NE10      30.11F
6HR MIN TEMP:  59; 6HR MAX TEMP:  75;

MUNCIE*        MOSUNNY   74  51  44 NE20      30.11S
6HR MIN TEMP:  62; 6HR MAX TEMP:  74;

INDIANAPOLIS   PTSUNNY   74  52  46 N8G17     30.10S
6HR MIN TEMP:  61; 6HR MAX TEMP:  74;


$$
MIZ043>046-050>051-056>058-064>065-071>073-077>080-241900-
SOUTHWEST LOWER MICHIGAN

CITY           SKY/WX    TMP DP  RH WIND       PRES   REMARKS
BATTLE CREEK   PTSUNNY   71  48  43 NE10      30.14F
6HR MIN TEMP:  59; 6HR MAX TEMP:  74;

BENTON HARBOR  SUNNY     68  53  58 NW8       30.15F
6HR MIN TEMP:  57; 6HR MAX TEMP:  70;

COLDWATER*     MOSUNNY   72  48  42 N5        30.13S
6HR MIN TEMP:  61; 6HR MAX TEMP:  72;

HILLSDALE*     PTSUNNY   71  48  44 N6        30.13S
HOLLAND        MOSUNNY   74  53  48 VRB5      30.15F
6HR MIN TEMP:  59; 6HR MAX TEMP:  74;

GRAND RAPIDS   MOSUNNY   74  51  44 NE6       30.14F
6HR MIN TEMP:  58; 6HR MAX TEMP:  74;

KALAMAZOO      PTSUNNY   72  48  42 MISG      30.13F
6HR MIN TEMP:  59; 6HR MAX TEMP:  73;

STURGIS*       PTSUNNY   70  54  56 NE7       30.12F
THREE RIVERS*  CLOUDY    70  53  53 N5        30.14F
6HR MIN TEMP:  60; 6HR MAX TEMP:  73;


$$
OHZ001>008-015>018-024>025-241900-
NORTHWEST OHIO

CITY           SKY/WX    TMP DP  RH WIND       PRES   REMARKS
WAUSEON*       PTSUNNY   72  50  46 NE9G17    30.11S
DEFIANCE       PTSUNNY   74  50  42 N10       30.11F
6HR MIN TEMP:  61; 6HR MAX TEMP:  74;

FINDLAY        PTSUNNY   72  51  47 NE14      30.09S
6HR MIN TEMP:  60; 6HR MAX TEMP:  74;

TOLEDO EXPRESS PTSUNNY   74  48  39 N10       30.10F
6HR MIN TEMP:  58; 6HR MAX TEMP:  75;

TOLEDO METCALF MOSUNNY   73  48  41 NE12G18   30.11F
6HR MIN TEMP:  61; 6HR MAX TEMP:  73;

LIMA           PTSUNNY   71  54  54 N9        30.09F
6HR MIN TEMP:  58; 6HR MAX TEMP:  74;


$$
&&



USA.gov is the U.S. government's official web portal to all federal, state and local government web resources and services.